[[{"header":{"parameterUnit":"m.s-1","parameterCategory":1,"la1":30.2992,"la2":30.254,"lo1":-89.0895,"lo2":-89.0443,"dy":0.0025,"dx":0.0025,"nx":19,"ny":19,"refTime":"2026-05-09T09:00:00:Z","depth":0,"parameterNumber":2,"parameterNumberName":"U-component_of_WINDS"},"data":[0,0,0,-0.4582,-0.4581,-0.4571,-0.4571,-0.4545,-0.4544,0,0,0,0,0,0,0,0,0,0,0,-0.4577,-0.4576,-0.4582,-0.4581,-0.4571,-0.4572,-0.4545,-0.4544,0,0,0,0,0,0,0,0,0,0,0,-0.4577,-0.4576,-0.4576,-0.4581,-0.4571,-0.4572,-0.4545,-0.4557,0,0,0,0,0,0,0,0,0,0,-0.457,-0.4557,-0.4577,-0.4576,-0.4581,-0.4571,-0.4572,-0.4558,-0.4557,-0.4543,0,-0.453,0,-0.4537,-0.4542,-0.4542,0,0,0,-0.4588,-0.4558,-0.4563,-0.4576,-0.4581,-0.4571,-0.4578,-0.4558,-0.4556,-0.4541,-0.453,-0.4529,-0.4536,-0.4542,-0.4541,-0.4443,-0.4442,0,0,-0.4588,-0.4571,-0.4564,-0.4561,-0.4562,-0.4578,-0.4577,-0.4557,-0.4543,-0.453,-0.4529,-0.4536,-0.4541,-0.4541,-0.4444,-0.4443,0,0,0,-0.4586,-0.4571,-0.4576,-0.4562,-0.4561,-0.4578,-0.4577,-0.4544,-0.4547,-0.4528,-0.4535,-0.4541,-0.4541,-0.4444,-0.4443,-0.4387,0,0,0,-0.4586,-0.4569,-0.4576,-0.4565,-0.4561,-0.4552,-0.4564,-0.4548,-0.4547,-0.4535,-0.4541,-0.454,-0.4445,-0.4444,-0.4391,-0.4363,0,0,0,-0.458,-0.4569,-0.4565,-0.4565,-0.456,-0.4553,-0.4555,-0.4548,-0.455,-0.4542,-0.454,-0.4446,-0.4444,-0.4394,-0.4368,-0.433,0,0,0,-0.4569,-0.4517,-0.4563,-0.4508,-0.4559,-0.4519,-0.4556,-0.4527,-0.4513,-0.4541,-0.4445,-0.4443,-0.4395,-0.4371,-0.4333,-0.4293,-0.4275,0,0,-0.4494,-0.4507,-0.4476,-0.4517,-0.4464,-0.4522,-0.446,-0.4465,-0.4481,-0.4454,-0.4452,-0.4389,-0.4369,-0.4331,-0.4186,-0.4171,0,0,0,-0.4446,-0.4423,-0.4413,-0.4398,-0.4399,-0.4397,-0.4413,-0.4414,-0.4392,-0.4464,-0.4367,-0.4355,-0.4334,-0.4315,-0.4303,-0.4284,-0.4435,-0.4435,-0.4435,-0.4315,-0.4336,-0.4284,-0.4304,-0.4289,-0.4304,-0.4293,-0.4297,-0.4325,-0.4302,-0.4293,-0.4203,-0.418,-0.4171,-0.4151,-0.4276,-0.4276,-0.4276,-0.4276,-0.4204,-0.4174,-0.4209,-0.4172,-0.4194,-0.4164,-0.4175,-0.4195,-0.4169,-0.4212,-0.4194,-0.4236,-0.4155,-0.4139,-0.4272,-0.4272,-0.4273,-0.4273,-0.4273,-0.4118,-0.4107,-0.4109,-0.4087,-0.4068,-0.409,-0.4061,-0.4084,-0.4106,-0.4088,-0.408,-0.4081,-0.4082,-0.4083,-0.4082,-0.4082,-0.4082,-0.4082,-0.4081,-0.4028,-0.4031,-0.4004,-0.3999,-0.3991,-0.3983,-0.3996,-0.3988,-0.3985,-0.4004,-0.4004,-0.4032,-0.4144,-0.417,-0.4077,-0.4077,-0.4078,-0.4079,-0.4079,-0.3904,-0.3935,-0.3893,-0.3885,-0.3879,-0.3856,-0.3885,-0.3867,-0.3865,-0.3849,-0.3881,-0.3961,-0.3977,-0.3987,-0.4008,-0.3878,-0.3878,-0.3878,-0.3878,-0.383,-0.384,-0.38,-0.3784,-0.3772,-0.3792,-0.3743,-0.3751,-0.3766,-0.3765,-0.3787,-0.3819,-0.3828,-0.3838,-0.3851,-0.3871,-0.3709,-0.3709,-0.3709,-0.3753,-0.3763,-0.3716,-0.3729,-0.3726,-0.3721,-0.3674,-0.3654,-0.3677,-0.3703,-0.3764,-0.3771,-0.3822,-0.3838,-0.3863,-0.3883,-0.3921,0,0]},{"header":{"parameterUnit":"m.s-1","parameterCategory":1,"la1":30.2992,"la2":30.254,"lo1":-89.0895,"lo2":-89.0443,"dy":0.0025,"dx":0.0025,"nx":19,"ny":19,"refTime":"2026-05-09T09:00:00:Z","depth":0,"parameterNumber":3,"parameterNumberName":"V-component_of_WINDS"},"data":[0,0,0,2.0548,2.0551,2.0688,2.0688,2.0865,2.0866,0,0,0,0,0,0,0,0,0,0,0,2.0511,2.0513,2.0548,2.0551,2.0688,2.0688,2.0864,2.0866,0,0,0,0,0,0,0,0,0,0,0,2.0511,2.0512,2.0514,2.0552,2.0688,2.0689,2.0864,2.076,0,0,0,0,0,0,0,0,0,0,2.0626,2.0597,2.0512,2.0514,2.0553,2.0688,2.0689,2.0755,2.0766,2.0804,0,2.0842,0,2.0857,2.0878,2.0879,0,0,0,2.0548,2.0588,2.0621,2.0514,2.0554,2.0688,2.0625,2.0761,2.0774,2.082,2.0844,2.0851,2.086,2.088,2.088,2.1118,2.1119,0,0,2.054,2.0538,2.0612,2.063,2.0612,2.0621,2.063,2.0769,2.0794,2.0845,2.0855,2.0863,2.0881,2.0882,2.1116,2.1118,0,0,0,2.0521,2.0532,2.0563,2.0623,2.0647,2.0625,2.0635,2.0788,2.0798,2.0856,2.0865,2.0882,2.0884,2.1115,2.1117,2.1179,0,0,0,2.0516,2.0521,2.0559,2.0559,2.0645,2.072,2.0651,2.0789,2.0805,2.0864,2.0882,2.0886,2.1114,2.1116,2.1174,2.1208,0,0,0,2.0501,2.0519,2.0541,2.0559,2.0618,2.0718,2.0736,2.0792,2.081,2.0879,2.0886,2.1113,2.1116,2.117,2.1201,2.127,0,0,0,2.0484,2.0593,2.0542,2.0666,2.0616,2.0756,2.0735,2.0838,2.0905,2.0883,2.1114,2.1117,2.1168,2.1197,2.1266,2.1329,2.1355,0,0,2.0619,2.0609,2.0682,2.0641,2.0789,2.0735,2.0891,2.0953,2.0961,2.1064,2.107,2.1175,2.1201,2.1269,2.1499,2.1519,0,0,0,2.0724,2.0777,2.0817,2.0881,2.0933,2.0979,2.1018,2.1041,2.1129,2.1014,2.1218,2.1234,2.1274,2.1304,2.1322,2.1356,2.113,2.113,2.113,2.0913,2.0919,2.104,2.1062,2.1124,2.1163,2.1213,2.125,2.1236,2.1284,2.1315,2.1454,2.1489,2.1502,2.1538,2.1347,2.1348,2.1348,2.1348,2.1113,2.1189,2.1168,2.1279,2.1282,2.1374,2.1414,2.1401,2.1486,2.1431,2.1466,2.1407,2.1525,2.1556,2.1353,2.1352,2.1351,2.1351,2.1351,2.1239,2.1277,2.1303,2.1396,2.1466,2.1482,2.1565,2.1564,2.1564,2.1599,2.1632,2.1631,2.163,2.1615,2.1615,2.1616,2.1616,2.1616,2.1617,2.136,2.1388,2.1459,2.1522,2.1562,2.1615,2.1654,2.1693,2.1736,2.1728,2.1729,2.171,2.1535,2.1492,2.1624,2.1623,2.1622,2.1621,2.1621,2.1564,2.1517,2.1627,2.1668,2.1741,2.181,2.1807,2.1887,2.1918,2.1959,2.1931,2.1802,2.1791,2.1777,2.1741,2.193,2.193,2.193,2.193,2.1671,2.1665,2.1777,2.1842,2.1905,2.1914,2.2035,2.2064,2.2087,2.2107,2.2078,2.203,2.2016,2.2013,2.1994,2.1961,2.2201,2.2202,2.2202,2.1797,2.1797,2.1902,2.1926,2.1982,2.2029,2.2143,2.2216,2.2231,2.2213,2.2122,2.211,2.2033,2.2007,2.1989,2.1959,2.1898,0,0]}]]